C/2021 X1 ( Maury-Attard )

Japanese version
Home page
Updated on April 28, 2023

---------------------------------------------------------------------

* Profile

Discovery Date December 2, 2021
Magnitude 19.0 mag
Discoverer Alain Maury and Georges Attard (Maury, Attard, Parrott (MAP) survey project)

* Pictures

* Orbital Elements

Epoch 2023 Feb. 25.0 TT = JDT 2460000.5
T 2023 May 27.47819 TT                                  Rudenko
q   3.2336083            (2000.0)            P               Q
z  -0.0000609      Peri.  334.62883     +0.82777353     +0.54856100
 +/-0.0000009      Node    10.58505     +0.55811186     -0.78357314
e   1.0001968      Incl.  140.12128     -0.05746421     +0.29170868
>From 1019 observations 2021 Oct. 22-2022 Dec. 22, mean residual 0".4.

* Finding Charts

* Magnitudes Graph

        m1 = 6.5 + 5 log d + 10.0 log r

---------------------------------------------------------------------

The orbital elements are published on M.P.E.C. 2022-Y114.
The charts are made with StellaNavigator Ver.10 (AstroArts).
The magnitudes graphs are made with Comet for Windows.

---------------------------------------------------------------------

Copyright(C) Seiichi Yoshida (comet@aerith.net). All rights reserved.